TimeAKST,TemperatureF,Dew PointF,Humidity,Sea Level PressureIn,VisibilityMPH,Wind Direction,Wind SpeedMPH,Gust SpeedMPH,PrecipitationIn,Events,Conditions,WindDirDegrees,DateUTC
12:05 AM,44.6,42.8,93,30.19,4.0,SE,17.3,32.2,0.01,Rain,Light Rain,140,2013-02-02 09:05:00
12:26 AM,46.4,42.8,87,30.19,10.0,SE,19.6,31.1,0.01,,Overcast,140,2013-02-02 09:26:00
12:53 AM,46.0,43.0,89,30.18,7.0,SSE,20.7,34.5,0.01,Rain,Light Rain,150,2013-02-02 09:53:00
1:53 AM,45.0,43.0,93,30.17,10.0,SE,16.1,29.9,0.00,,Overcast,140,2013-02-02 10:53:00
3:53 AM,45.0,43.0,93,30.14,6.0,SE,17.3,28.8,0.08,Rain,Rain,140,2013-02-02 12:53:00
4:53 AM,45.0,43.0,93,30.13,7.0,SE,17.3,25.3,0.08,Rain,Light Rain,140,2013-02-02 13:53:00
5:53 AM,45.0,43.0,93,30.12,10.0,SE,15.0,23.0,0.03,Rain,Light Rain,140,2013-02-02 14:53:00
6:53 AM,45.0,43.0,93,30.12,10.0,SSE,10.4,24.2,0.01,,Overcast,150,2013-02-02 15:53:00
7:53 AM,45.0,43.0,93,30.11,10.0,SSE,12.7,25.3,N/A,,Overcast,150,2013-02-02 16:53:00
8:53 AM,45.0,43.0,93,30.10,10.0,SSE,12.7,23.0,N/A,,Overcast,150,2013-02-02 17:53:00
9:53 AM,45.0,43.0,93,30.08,10.0,SSE,13.8,25.3,N/A,,Overcast,150,2013-02-02 18:53:00
10:53 AM,45.0,43.0,93,30.07,8.0,SSE,16.1,28.8,0.00,Rain,Light Rain,150,2013-02-02 19:53:00
11:53 AM,45.0,44.1,97,30.05,6.0,SSE,15.0,27.6,0.03,Rain,Light Rain,150,2013-02-02 20:53:00
12:15 PM,44.6,44.6,100,30.04,4.0,SSE,16.1,28.8,0.02,Rain,Light Rain,150,2013-02-02 21:15:00
12:53 PM,45.0,44.1,97,30.04,4.0,SSE,16.1,25.3,0.07,Rain,Light Rain,150,2013-02-02 21:53:00
1:14 PM,44.6,44.6,100,30.03,2.5,SSE,15.0,24.2,0.03,Rain,Light Rain,150,2013-02-02 22:14:00
1:26 PM,44.6,44.6,100,30.03,4.0,SSE,13.8,25.3,0.05,Rain,Light Rain,150,2013-02-02 22:26:00
1:53 PM,45.0,44.1,97,30.04,4.0,SSE,12.7,21.9,0.09,Rain,Rain,150,2013-02-02 22:53:00
2:11 PM,44.6,44.6,100,30.04,4.0,SSE,11.5,24.2,0.05,Rain,Rain,160,2013-02-02 23:11:00
2:53 PM,45.0,44.1,97,30.04,10.0,South,5.8,-,0.09,Rain,Light Rain,180,2013-02-02 23:53:00
3:53 PM,45.0,43.0,93,30.04,10.0,SE,5.8,-,0.00,,Overcast,140,2013-02-03 00:53:00
4:01 PM,44.6,44.6,100,30.03,9.0,SSE,3.5,-,0.00,Rain,Light Rain,150,2013-02-03 01:01:00
4:07 PM,44.6,44.6,100,30.03,6.0,SSE,4.6,-,0.00,Rain,Light Rain,160,2013-02-03 01:07:00
4:53 PM,44.1,43.0,96,30.04,7.0,SE,5.8,-,0.01,Rain,Light Rain,140,2013-02-03 01:53:00
5:14 PM,44.6,42.8,93,30.04,10.0,SE,5.8,-,0.00,,Overcast,140,2013-02-03 02:14:00
5:53 PM,45.0,44.1,97,30.04,9.0,SSE,4.6,-,0.00,,Overcast,150,2013-02-03 02:53:00
6:05 PM,44.6,44.6,100,30.04,7.0,SSE,4.6,-,N/A,,Overcast,160,2013-02-03 03:05:00
6:32 PM,44.6,42.8,93,30.03,5.0,Variable,6.9,-,0.00,Rain,Light Rain,0,2013-02-03 03:32:00
6:45 PM,44.6,42.8,93,30.03,10.0,SSW,5.8,-,0.00,Rain,Light Rain,200,2013-02-03 03:45:00
6:53 PM,44.1,42.1,93,30.04,8.0,SSW,5.8,-,0.01,Rain,Light Rain,210,2013-02-03 03:53:00
7:05 PM,42.8,42.8,100,30.03,6.0,SSW,3.5,-,0.00,Rain,Light Rain,200,2013-02-03 04:05:00
7:40 PM,42.8,42.8,100,30.03,10.0,Calm,Calm,-,0.00,,Overcast,0,2013-02-03 04:40:00
7:53 PM,43.0,41.0,93,30.04,10.0,Calm,Calm,-,0.00,,Overcast,0,2013-02-03 04:53:00
8:53 PM,43.0,39.9,89,30.04,10.0,South,3.5,-,0.00,,Overcast,170,2013-02-03 05:53:00
9:53 PM,41.0,39.0,93,30.04,10.0,Calm,Calm,-,N/A,,Mostly Cloudy,0,2013-02-03 06:53:00
10:49 PM,42.8,39.2,87,30.03,10.0,SSE,5.8,-,N/A,,Overcast,160,2013-02-03 07:49:00
10:53 PM,42.1,39.9,92,30.04,10.0,Variable,3.5,-,N/A,,Overcast,0,2013-02-03 07:53:00
11:09 PM,42.8,39.2,87,30.04,10.0,South,3.5,-,N/A,,Overcast,170,2013-02-03 08:09:00
11:33 PM,42.8,39.2,87,30.04,10.0,SSE,4.6,-,N/A,,Overcast,150,2013-02-03 08:33:00
11:53 PM,42.1,39.9,92,30.05,10.0,SSE,3.5,-,N/A,,Overcast,150,2013-02-03 08:53:00